[[{"header":{"parameterUnit":"m.s-1","parameterCategory":1,"la1":30.2991,"la2":30.254,"lo1":-89.0895,"lo2":-89.0444,"dy":0.0017,"dx":0.0017,"nx":28,"ny":28,"refTime":"2023-06-18T21:00:00:Z","depth":0,"parameterNumber":2,"parameterNumberName":"U-component_of_WINDS"},"data":[0,0,0,0,0,0,0,0,0,0,0,0,0,0,0,0,0,0,0,0,0,0,0,0,0,0,0,0,0,0,0,0,0,0,0,0,0,0,0,0,0,0,0,0,0,0,0,0,0,0,0,0,0,0,0,0,0,0,-2.9746,-2.9747,0,-2.9856,-2.9858,-2.9859,-2.9884,-2.9883,-2.9882,-2.9881,-3.0,-3.0004,-3.0008,0,0,0,0,0,0,0,0,0,0,0,0,0,-2.956,-2.9564,-2.9746,-2.9747,-2.9748,-2.9856,-2.9858,-2.9859,-2.9884,-2.9883,-2.9882,-2.9881,-2.9999,-3.0003,-3.0008,0,0,0,0,0,0,0,0,0,0,0,0,0,-2.9653,-2.9565,-2.9745,-2.9774,-2.9777,-2.9856,-2.9858,-2.986,-2.9884,-2.9883,-2.9882,-2.988,-2.9997,-3.0003,-3.0009,-3.0069,0,0,-3.0027,-3.0029,0,0,0,0,0,0,0,0,-2.9648,-2.966,-2.9768,-2.9772,-2.9776,-2.9855,-2.9836,-2.993,-2.9884,-2.9844,-2.9881,-2.988,-2.9953,-2.9963,-2.9986,-3.0074,-3.008,-3.0027,-3.0031,-3.0033,-3.0035,0,0,0,0,0,0,0,-2.9641,-2.9655,-2.979,-2.977,-2.9774,-2.9782,-2.9794,-2.9854,-2.9904,-2.9847,-2.9849,-2.9862,-2.9955,-2.998,-2.9989,-3.0081,-3.0027,-3.0032,-3.0036,-3.0038,-3.0223,-3.0224,0,0,0,0,0,0,-2.9629,-2.965,-2.9786,-2.9793,-2.9707,-2.9786,-2.98,-2.9831,-2.9903,-2.9913,-2.9862,-2.9862,-2.9971,-2.9982,-2.9993,-3.0067,-3.0033,-3.0039,-3.0042,-3.0222,-3.0223,-3.0225,0,0,0,0,0,0,-2.9625,-2.9641,-2.9782,-2.9722,-2.974,-2.9791,-2.9826,-2.9834,-2.9859,-2.9915,-2.9924,-2.9879,-2.997,-2.9985,-3.0049,-3.0071,-3.0041,-3.0047,-3.022,-3.0222,-3.0224,-3.0215,0,0,0,0,0,0,-2.962,-2.9639,-2.9662,-2.9722,-2.9743,-2.9834,-2.9827,-2.9837,-2.9868,-2.9869,-2.9933,-2.9942,-2.9971,-3.004,-3.0055,-3.0079,-3.0051,-3.0218,-3.0221,-3.0223,-3.0213,-3.0216,-3.0219,0,0,0,0,0,-2.9613,-2.9657,-2.9663,-2.9679,-2.9772,-2.9835,-2.9848,-2.9878,-2.987,-2.9893,-2.9929,-2.994,-3.0067,-3.0047,-3.0063,-3.0089,-3.0217,-3.022,-3.0223,-3.0212,-3.0216,-3.0219,0,0,0,0,0,0,-2.96,-2.9665,-2.9673,-2.9737,-2.978,-2.9839,-2.987,-2.9881,-2.9929,-2.9928,-2.9966,-2.998,-3.0041,-3.0072,-3.0048,-3.015,-3.0142,-3.0148,-3.0127,-3.0131,-3.0134,-3.0125,-3.0056,0,0,0,0,0,-2.9604,-2.9648,-2.9704,-2.9755,-2.9776,-2.9819,-2.9848,-2.9867,-2.9914,-2.9933,-2.9974,-3.0021,-3.0071,-3.0103,-3.0153,-3.0218,-3.0232,-3.0245,-3.0247,-3.0249,-3.0254,-3.029,-3.0295,-3.0235,-3.0235,-3.0235,0,0,-2.9614,-2.9655,-2.9681,-2.9753,-2.9789,-2.9835,-2.9834,-2.9884,-2.9918,-2.9942,-3.0003,-3.0035,-3.009,-3.0154,-3.0184,-3.0182,-3.0274,-3.0253,-3.0254,-3.0258,-3.0293,-3.0299,-3.0304,-3.0237,-3.0237,-3.0237,0,0,-2.9655,-2.9691,-2.9736,-2.9771,-2.9824,-2.9852,-2.9863,-2.9921,-2.9942,-3.0004,-3.0022,-3.0065,-3.0151,-3.0188,-3.0219,-3.0272,-3.0284,-3.0288,-3.0301,-3.0336,-3.034,-3.0345,-3.0362,-3.0368,-3.0293,-3.0293,-3.0293,0,-2.9661,-2.9728,-2.9758,-2.9805,-2.9836,-2.9858,-2.9904,-2.9938,-3.0005,-3.0027,-3.0022,-3.0129,-3.0168,-3.024,-3.0253,-3.0278,-3.0291,-3.028,-3.0337,-3.0342,-3.0346,-3.0363,-3.037,-3.0293,-3.0293,-3.0293,-3.0293,0,-2.9732,-2.9779,-2.981,-2.9871,-2.9906,-2.9953,-2.999,-3.0022,-3.0039,-3.0068,-3.013,-3.0177,-3.0236,-3.0255,-3.0273,-3.033,-3.0326,-3.0329,-3.0321,-3.0351,-3.0368,-3.0375,-3.0292,-3.0292,-3.0292,-3.0293,0,0,-2.9768,-2.9843,-2.9854,-2.9881,-2.9941,-2.9978,-3.0027,-3.0081,-3.0107,-3.0154,-3.0194,-3.0266,-3.0268,-3.0303,-3.0325,-3.0355,-3.0392,-3.0355,-3.0356,-3.0358,-3.0457,-3.0452,-3.046,-3.0401,-3.0402,-3.0404,-3.0451,0,-2.9814,-2.9897,-2.9925,-2.9994,-3.0037,-3.0058,-3.01,-3.0142,-3.017,-3.0212,-3.0245,-3.0293,-3.0294,-3.0314,-3.0345,-3.0381,-3.0412,-3.0378,-3.044,-3.0441,-3.0423,-3.0469,-3.0465,-3.0508,-3.0458,-3.0459,-3.046,0,-2.9879,-2.9922,-2.9995,-3.0047,-3.0067,-3.0103,-3.0155,-3.0195,-3.0243,-3.0261,-3.0299,-3.0319,-3.037,-3.036,-3.0432,-3.0408,-3.0435,-3.0457,-3.0459,-3.0465,-3.0451,-3.0474,-3.0522,-3.0528,-3.0471,-3.047,-3.047,0,-2.9894,-2.9972,-3.0025,-3.0048,-3.0111,-3.0136,-3.0164,-3.0211,-3.0241,-3.0287,-3.0307,-3.036,-3.0389,-3.0429,-3.0463,-3.0453,-3.0532,-3.0524,-3.0549,-3.0547,-3.0563,-3.0561,-3.0615,-3.0583,-3.0583,-3.0583,-3.0583,0,-2.9942,-2.9985,-3.0032,-3.0065,-3.0114,-3.0146,-3.0195,-3.0224,-3.0265,-3.0305,-3.0328,-3.0365,-3.0407,-3.0451,-3.0478,-3.0532,-3.0546,-3.0563,-3.0569,-3.0559,-3.0557,-3.0576,-3.0574,-3.0585,-3.0585,-3.0584,-3.0584,0,-2.9967,-3.0,-3.0059,-3.0113,-3.0127,-3.0161,-3.0208,-3.0241,-3.027,-3.032,-3.0333,-3.038,-3.0431,-3.0469,-3.0537,-3.0555,-3.0613,-3.062,-3.0595,-3.0598,-3.0619,-3.0616,-3.0686,-3.0696,-3.0659,-3.066,-3.066,0,-2.9994,-3.0027,-3.0084,-3.011,-3.0137,-3.0181,-3.0211,-3.0245,-3.0276,-3.0332,-3.0358,-3.0411,-3.0454,-3.0536,-3.0577,-3.0629,-3.0636,-3.0657,-3.0645,-3.0633,-3.0635,-3.0631,-3.0634,-3.0659,-3.0659,-3.0659,-3.0659,0,-3.0038,-3.0052,-3.0094,-3.0141,-3.0176,-3.0215,-3.0255,-3.0277,-3.0318,-3.0352,-3.0403,-3.0436,-3.0504,-3.0556,-3.0611,-3.0642,-3.0658,-3.0663,-3.0671,-3.0661,-3.0644,-3.0651,-3.0598,-3.0661,-3.0661,-3.0661,-3.0661,-3.066,-3.0064,-3.0093,-3.0137,-3.0182,-3.0215,-3.0252,-3.0284,-3.0316,-3.0359,-3.0414,-3.0433,-3.0485,-3.0533,-3.0608,-3.064,-3.0683,-3.0682,-3.0694,-3.0697,-3.0699,-3.0697,-3.0638,-3.0693,-3.0693,-3.0693,-3.0693,-3.0693,0,-3.0107,-3.0135,-3.0177,-3.023,-3.0266,-3.0275,-3.032,-3.035,-3.0395,-3.0437,-3.0478,-3.0537,-3.0587,-3.0631,-3.0684,-3.071,-3.0718,-3.0722,-3.072,-3.0726,-3.0696,-3.0682,-3.0714,-3.0714,-3.0714,-3.0714,-3.0714,-3.0714,-3.0133,-3.0183,-3.0202,-3.0269,-3.0298,-3.0348,-3.0372,-3.0406,-3.0439,-3.0503,-3.0543,-3.0571,-3.0614,-3.0669,-3.0716,-3.0728,-3.0746,-3.0748,-3.0761,-3.0732,-3.0729,-3.0726,-3.0714,-3.0752,-3.0752,-3.0788,-3.0789,-3.0789]},{"header":{"parameterUnit":"m.s-1","parameterCategory":1,"la1":30.2991,"la2":30.254,"lo1":-89.0895,"lo2":-89.0444,"dy":0.0017,"dx":0.0017,"nx":28,"ny":28,"refTime":"2023-06-18T21:00:00:Z","depth":0,"parameterNumber":3,"parameterNumberName":"V-component_of_WINDS"},"data":[0,0,0,0,0,0,0,0,0,0,0,0,0,0,0,0,0,0,0,0,0,0,0,0,0,0,0,0,0,0,0,0,0,0,0,0,0,0,0,0,0,0,0,0,0,0,0,0,0,0,0,0,0,0,0,0,0,0,6.6106,6.6106,0,6.6111,6.6111,6.6111,6.6093,6.6093,6.6092,6.6092,6.6093,6.6093,6.6094,0,0,0,0,0,0,0,0,0,0,0,0,0,6.6078,6.6078,6.6106,6.6106,6.6106,6.6111,6.6111,6.6111,6.6093,6.6093,6.6092,6.6091,6.6093,6.6093,6.6094,0,0,0,0,0,0,0,0,0,0,0,0,0,6.6087,6.6079,6.6106,6.6098,6.6097,6.6111,6.6111,6.6111,6.6093,6.6093,6.6092,6.6091,6.6092,6.6093,6.6094,6.6114,0,0,6.6096,6.6097,0,0,0,0,0,0,0,0,6.6086,6.6088,6.6099,6.6098,6.6097,6.6101,6.6101,6.6112,6.6094,6.6095,6.6092,6.6091,6.6096,6.6096,6.6099,6.6114,6.6114,6.6096,6.6097,6.6097,6.6097,0,0,0,0,0,0,0,6.6086,6.6088,6.6107,6.6099,6.6098,6.6093,6.6093,6.6103,6.6099,6.6094,6.6093,6.6094,6.6095,6.6098,6.6099,6.6114,6.6096,6.6097,6.6097,6.6098,6.6149,6.615,0,0,0,0,0,0,6.6087,6.6087,6.6107,6.6108,6.609,6.6094,6.6095,6.61,6.6099,6.6098,6.6095,6.6093,6.6097,6.6098,6.6099,6.6124,6.6097,6.6098,6.6098,6.6148,6.615,6.6151,0,0,0,0,0,0,6.6086,6.6089,6.6107,6.6097,6.6099,6.6095,6.6102,6.6101,6.6104,6.61,6.6098,6.6099,6.6096,6.6097,6.6111,6.6124,6.6098,6.6099,6.6147,6.6149,6.615,6.6175,0,0,0,0,0,0,6.6085,6.6089,6.6097,6.6098,6.61,6.6121,6.6103,6.6101,6.6106,6.6104,6.6103,6.6102,6.6096,6.611,6.6112,6.6125,6.6099,6.6146,6.6148,6.615,6.6173,6.6177,6.618,0,0,0,0,0,6.6085,6.6102,6.6097,6.61,6.611,6.6121,6.6122,6.6116,6.6107,6.6115,6.6112,6.6102,6.6122,6.6112,6.6114,6.6127,6.6145,6.6148,6.6149,6.6171,6.6176,6.618,0,0,0,0,0,0,6.61,6.6102,6.6097,6.6115,6.6119,6.6118,6.6128,6.6121,6.6126,6.6124,6.6115,6.6115,6.6131,6.613,6.6118,6.6147,6.6132,6.6135,6.6148,6.6152,6.6156,6.6156,6.61,0,0,0,0,0,6.6107,6.6117,6.6117,6.6133,6.6135,6.6132,6.6136,6.6132,6.6134,6.6135,6.6134,6.6136,6.6143,6.6147,6.6153,6.6172,6.6173,6.6182,6.6186,6.6189,6.6191,6.6203,6.6208,6.6157,6.6157,6.6157,0,0,6.6118,6.612,6.6127,6.6136,6.6138,6.6149,6.6133,6.6144,6.6151,6.6136,6.615,6.6149,6.6151,6.6168,6.6176,6.6168,6.6206,6.6191,6.6194,6.6195,6.6206,6.6211,6.6215,6.6159,6.6158,6.6158,0,0,6.6146,6.6148,6.6163,6.6166,6.6171,6.6168,6.6172,6.6174,6.6173,6.6187,6.6177,6.6185,6.6197,6.6199,6.6202,6.6233,6.6224,6.6235,6.6254,6.6266,6.627,6.6274,6.6286,6.6291,6.6237,6.6237,6.6237,0,6.6159,6.6176,6.6171,6.6184,6.6189,6.6178,6.6193,6.6196,6.6201,6.6204,6.6196,6.6212,6.6212,6.6231,6.6239,6.6241,6.6245,6.6235,6.627,6.6274,6.6277,6.6289,6.6294,6.6239,6.6239,6.6238,6.6238,0,6.6194,6.6205,6.6217,6.6225,6.6231,6.6245,6.6242,6.6248,6.6243,6.6242,6.6257,6.6258,6.6265,6.6268,6.6262,6.6287,6.6282,6.6272,6.6257,6.6284,6.6295,6.6299,6.6241,6.624,6.624,6.624,0,0,6.623,6.6238,6.6242,6.6247,6.6252,6.626,6.6274,6.6283,6.6289,6.6293,6.6305,6.6316,6.6308,6.6311,6.6306,6.6316,6.6343,6.6305,6.6305,6.6313,6.6372,6.638,6.6385,6.6337,6.6338,6.6338,6.6372,0,6.6258,6.6284,6.6281,6.6305,6.6317,6.6307,6.6319,6.6323,6.6323,6.6332,6.633,6.634,6.6327,6.6329,6.6339,6.6338,6.6355,6.6335,6.6348,6.6348,6.6349,6.6391,6.6399,6.6431,6.6376,6.6377,6.6377,0,6.6295,6.6304,6.633,6.6336,6.634,6.6351,6.636,6.6369,6.6374,6.6373,6.6378,6.6371,6.6385,6.6369,6.6388,6.6375,6.6379,6.638,6.6381,6.6382,6.6365,6.6395,6.6441,6.6446,6.6384,6.6383,6.6383,0,6.6321,6.6339,6.6358,6.6362,6.6368,6.6377,6.638,6.6384,6.639,6.6397,6.6402,6.6409,6.6414,6.642,6.6416,6.6405,6.6436,6.6419,6.6436,6.6436,6.6443,6.6443,6.6492,6.6445,6.6445,6.6445,6.6444,0,6.6354,6.6371,6.637,6.6382,6.64,6.6397,6.6415,6.6416,6.6421,6.6432,6.6423,6.6434,6.6427,6.6437,6.6433,6.6451,6.6452,6.6452,6.6451,6.6453,6.6454,6.6457,6.6455,6.6446,6.6446,6.6445,6.6445,0,6.6386,6.6387,6.6407,6.6413,6.6415,6.6428,6.6433,6.6443,6.6443,6.6458,6.6461,6.646,6.6471,6.6468,6.6479,6.6477,6.6499,6.6495,6.6499,6.6498,6.6515,6.6514,6.6569,6.6577,6.6523,6.6524,6.6524,0,6.6408,6.6421,6.6429,6.6438,6.6442,6.6455,6.6462,6.6459,6.6466,6.6474,6.6484,6.6495,6.6504,6.6523,6.6523,6.6532,6.6529,6.6547,6.653,6.6533,6.6531,6.6531,6.6532,6.6551,6.6551,6.6552,6.6552,0,6.6447,6.6447,6.6459,6.6471,6.6481,6.649,6.6498,6.6505,6.6502,6.6511,6.6524,6.6531,6.6545,6.6556,6.6565,6.6567,6.656,6.6558,6.6562,6.6566,6.6568,6.6569,6.651,6.6557,6.6556,6.6556,6.6556,6.6555,6.6475,6.6488,6.6497,6.651,6.6517,6.6525,6.6537,6.6539,6.655,6.6562,6.6559,6.6574,6.658,6.6592,6.6595,6.6606,6.6599,6.6605,6.6607,6.6609,6.6612,6.6566,6.6608,6.6607,6.6607,6.6607,6.6607,0,6.6515,6.6521,6.6534,6.6547,6.6559,6.6552,6.6561,6.6571,6.6585,6.6592,6.6602,6.6617,6.6629,6.6631,6.6642,6.6651,6.6647,6.6654,6.6653,6.6654,6.6617,6.6613,6.6656,6.6656,6.6656,6.6656,6.6656,6.6656,6.6538,6.6559,6.6561,6.6585,6.659,6.6607,6.6613,6.6621,6.6626,6.6645,6.6656,6.6657,6.6662,6.6674,6.6684,6.6684,6.6689,6.6697,6.6696,6.6661,6.6657,6.6652,6.6648,6.6698,6.6698,6.6733,6.6733,6.6733]}]]